This is the latest recevied weather packets stored in our database for station/object N6GPM. If no packets are shown the sender has not sent any weather packets the latest 10 day(s).
| Time | Temp. | Humidity | Pressure | Rain* | Wind** | Luminosity | Snow |
|---|---|---|---|---|---|---|---|
| 1777995848 | 10.56° C | 92% | 1017.4 hPa | 0 mm | - | 222 W/m² | - |
| 1777995545 | 10.56° C | 93% | 1017.3 hPa | 0 mm | - | 456 W/m² | - |
| 1777995242 | 10.56° C | 94% | 1017.2 hPa | 0 mm | - | 235 W/m² | - |
| 1777994939 | 10° C | 95% | 1017 hPa | 0 mm | - | 191 W/m² | - |
| 1777994635 | 10° C | 95% | 1017.2 hPa | 0 mm | - | 171 W/m² | - |
| 1777994330 | 10° C | 95% | 1017.3 hPa | 0 mm | - | 180 W/m² | - |
| 1777994027 | 10.56° C | 95% | 1017.2 hPa | 0 mm | - | 183 W/m² | - |
| 1777993724 | 10° C | 95% | 1017.2 hPa | 0 mm | - | 152 W/m² | - |
| 1777993421 | 10° C | 95% | 1016.9 hPa | 0 mm | - | 147 W/m² | - |
| 1777993115 | 10.56° C | 96% | 1017 hPa | 0 mm | - | 133 W/m² | - |
| 1777992814 | 10° C | 96% | 1016.9 hPa | 0 mm | - | 131 W/m² | - |
| 1777992511 | 10° C | 96% | 1017 hPa | 0 mm | - | 124 W/m² | - |
| 1777992210 | 10° C | 96% | 1016.9 hPa | 0 mm | - | 128 W/m² | - |
| 1777991906 | 10° C | 96% | 1016.9 hPa | 0 mm | - | 111 W/m² | - |
| 1777991603 | 10° C | 96% | 1016.9 hPa | 0 mm | - | 104 W/m² | - |
| 1777991301 | 10° C | 96% | 1016.7 hPa | 0 mm | - | 91 W/m² | - |
| 1777990998 | 10° C | 96% | 1016.8 hPa | 0 mm | - | 89 W/m² | - |
| 1777990695 | 10° C | 96% | 1016.7 hPa | 0 mm | - | 89 W/m² | - |
| 1777990393 | 10° C | 96% | 1016.7 hPa | 0 mm | - | 83 W/m² | - |
| 1777989785 | 10° C | 96% | 1016.8 hPa | 0 mm | - | 70 W/m² | - |
| 1777989482 | 10° C | 96% | 1016.7 hPa | 0 mm | - | 60 W/m² | - |
| 1777989178 | 10° C | 96% | 1016.7 hPa | 0 mm | - | 47 W/m² | - |
| 1777988874 | 10° C | 95% | 1016.7 hPa | 0 mm | - | 38 W/m² | - |
| 1777988572 | 10° C | 96% | 1016.6 hPa | 0 mm | - | 42 W/m² | - |
| 1777988268 | 10° C | 95% | 1016.5 hPa | 0 mm | - | 32 W/m² | - |
* Rain latest hour (hover to see other rain measurements)
** Current wind speed in m/s (hover to see current wind gust speed)